This is the latest recevied weather packets stored in our database for station/object K5IDL. If no packets are shown the sender has not sent any weather packets the latest 10 day(s).
| Time | Temp. | Humidity | Pressure | Rain* | Wind** | Luminosity | Snow |
|---|---|---|---|---|---|---|---|
| 1778191713 | 23.89° C | 48% | 1016.1 hPa | 0 mm | - | 100 W/m² | - |
| 1778191412 | 23.33° C | 45% | 1016.3 hPa | 0 mm | - | 100 W/m² | - |
| 1778191107 | 23.33° C | 45% | 1016.2 hPa | 0 mm | - | 102 W/m² | - |
| 1778190805 | 23.89° C | 44% | 1016.2 hPa | 0 mm | - | 102 W/m² | - |
| 1778190502 | 24.44° C | 43% | 1016.3 hPa | 0 mm | - | 112 W/m² | - |
| 1778190199 | 24.44° C | 44% | 1016.4 hPa | 0 mm | - | 117 W/m² | - |
| 1778189894 | 23.89° C | 45% | 1016.5 hPa | 0 mm | - | 122 W/m² | - |
| 1778189591 | 24.44° C | 43% | 1016.5 hPa | 0 mm | - | 121 W/m² | - |
| 1778189288 | 24.44° C | 42% | 1016.3 hPa | 0 mm | - | 120 W/m² | - |
| 1778188984 | 24.44° C | 43% | 1016.3 hPa | 0 mm | - | 130 W/m² | - |
| 1778188680 | 25° C | 43% | 1016.5 hPa | 0 mm | - | 160 W/m² | - |
| 1778188377 | 25° C | 41% | 1016.5 hPa | 0 mm | - | 205 W/m² | - |
| 1778188074 | 24.44° C | 44% | 1016.7 hPa | 0 mm | - | 129 W/m² | - |
| 1778187771 | 24.44° C | 43% | 1016.3 hPa | 0 mm | - | 117 W/m² | - |
| 1778187467 | 24.44° C | 43% | 1016.7 hPa | 0 mm | - | 102 W/m² | - |
| 1778187164 | 24.44° C | 43% | 1016.9 hPa | 0 mm | - | 92 W/m² | - |
| 1778186860 | 23.33° C | 44% | 1016.8 hPa | 0 mm | - | 152 W/m² | - |
| 1778186559 | 23.89° C | 44% | 1016.7 hPa | 0 mm | - | 140 W/m² | - |
| 1778186256 | 24.44° C | 43% | 1016.7 hPa | 0 mm | - | 134 W/m² | - |
| 1778185953 | 24.44° C | 42% | 1016.9 hPa | 0 mm | - | 118 W/m² | - |
| 1778185650 | 24.44° C | 43% | 1016.9 hPa | 0 mm | - | 101 W/m² | - |
| 1778185346 | 24.44° C | 44% | 1017 hPa | 0 mm | - | 90 W/m² | - |
| 1778185041 | 24.44° C | 44% | 1017.1 hPa | 0 mm | - | 89 W/m² | - |
| 1778184738 | 24.44° C | 44% | 1017.3 hPa | 0 mm | - | 139 W/m² | - |
| 1778184434 | 23.89° C | 44% | 1017.3 hPa | 0 mm | - | 285 W/m² | - |
* Rain latest hour (hover to see other rain measurements)
** Current wind speed in m/s (hover to see current wind gust speed)